Tracking 22438 objects as of 24-Feb-2021
HD Live streaming from Space Station
objects crossing your sky now

COSMOS 1375 DEB

Track COSMOS 1375 DEB now!
10-day predictions


NORAD ID: 16209
Int'l Code: 1982-055L
Perigee: 981.8 km
Apogee: 1,022.3 km
Inclination: 65.8 °
Period: 105.0 minutes
Semi major axis: 7373 km
RCS: 0.5415 m2 (medium)
Launch date: June 6, 1982
Source: Commonwealth of Independent States (former USSR) (CIS)
Launch site: PLESETSK MISSILE AND SPACE COMPLEX (PKMTR)

Note: This is SATELLITE DEBRIS
aabbcc
Your satellite tracking list
Your tracking list is empty




NASA's NSSDC Master Catalog

Two Line Element Set (TLE):
1 16209U 82055L   21054.58362362 -.00000079  00000-0  12453-5 0  9992
2 16209  65.8380 354.1430 0027525 252.2151 280.4417 13.71297685774451
Source of the keplerian elements: AFSPC